Simultaneous Nadir Overpasses (SNOs) Predictions

Prediction of SNOs between AQUA and METOP-B Satellite Orbit:

Table of predicted SNOs for the next 14.0 days since TLE Epoch: 9/29/2017
Index Date (AQUA) Time (AQUA) Lat,Lon (AQUA) SZA (AQUA ) Date (METOP-B) Time (METOP-B) Lat,Lon (METOP-B) SZA (METOP-B ) Distance(km) Time Diff (sec)
1 09/30/2017 21:16:42 -73.78, 35.09 103.16 09/30/2017 21:15:53 -73.78, 35.14 103.15 1.64 49
2 09/30/2017 22:06:11 73.83,-157.39 76.91 09/30/2017 22:06:32 73.81,-157.46 76.90 2.87 21
3 10/03/2017 16:50:57 -73.78, 101.52 102.07 10/03/2017 16:50:15 -73.79, 101.56 102.06 1.29 42
4 10/03/2017 17:40:26 73.84, -90.98 78.01 10/03/2017 17:40:53 73.86, -90.92 78.03 3.06 27
5 10/06/2017 12:25:13 -73.80, 167.91 100.97 10/06/2017 12:24:38 -73.79, 167.96 100.98 2.39 35
6 10/06/2017 13:14:42 73.86, -24.59 79.12 10/06/2017 13:15:16 73.86, -24.51 79.11 2.50 34
7 10/09/2017 07:59:28 -73.78,-125.60 99.92 10/09/2017 07:59:01 -73.78,-125.63 99.91 0.97 27
8 10/09/2017 08:48:57 73.85, 41.88 80.17 10/09/2017 08:49:39 73.86, 41.89 80.18 1.35 42
9 10/12/2017 03:33:42 -73.77, -59.15 98.87 10/12/2017 03:33:23 -73.78, -59.24 98.86 2.93 19
10 10/12/2017 04:23:11 73.85, 108.32 81.23 10/12/2017 04:24:01 73.86, 108.29 81.24 1.45 50




NCC Satellite Simultaneous Nadir Overpasses (SNOs) Prediction Service
